Regional Weather Roundup
Issued by NWS

Home | Current Version | Previous Version | Graphics & Text | Print | Product List | Glossary On
Versions: 1 2 3 4 5 6 7 8 9 10 11 12 13 14 15 16 17 18 19 20 21 22 23 24 25 26 27 28 29 30 31 32 33 34 35 36 37 38 39 40 41 42 43 44 45 46 47 48 49 50
000
ASUS45 KPSR 012000
RWRAZ

ARIZONA REGIONAL HOURLY WEATHER ROUNDUP
NATIONAL WEATHER SERVICE PHOENIX AZ
100 PM MST WED APR 01 2015

NOTE: FAIR INDICATES FEW OR NO CLOUDS BELOW 12,000 FEET WITH NO
SIGNIFICANT WEATHER AND/OR OBSTRUCTIONS TO VISIBILITY.

AZZ001>003-036-012100-
NORTHWEST ARIZONA

CITY           SKY/WX    TMP DP  RH WIND       PRES   REMARKS
KINGMAN        FAIR      74  13   9 CALM      29.95F
$$

AZZ004>008-015-016-018-012100-
NORTH CENTRAL ARIZONA

CITY           SKY/WX    TMP DP  RH WIND       PRES   REMARKS
GRAND CANYON   FAIR      64  14  14 W13G22    30.02F
WILLIAMS       FAIR      64  19  17 W15G24    30.11F
PRESCOTT       FAIR      70  27  20 SW15      30.00F
FLAGSTAFF      NOT AVBL
PAYSON         FAIR      68  32  26 W12G18    30.04S
PAGE           FAIR      75   6   7 NW13      29.87F
$$

AZZ009>014-017-012100-
NORTHEAST ARIZONA

CITY           SKY/WX    TMP DP  RH WIND       PRES   REMARKS
WINSLOW        NOT AVBL
SAINT JOHNS      N/A     71  24  17 W21G32    29.98F
WINDOW ROCK    PTSUNNY   67  23  19 W20G29    30.00F
SHOW LOW       FAIR      66  25  20 SW24G33   30.06F
$$

AZZ023-012100-
GREATER PHOENIX AREA

CITY           SKY/WX    TMP DP  RH WIND       PRES   REMARKS
PHOENIX        FAIR      87  37  17 SW8       29.84F
LUKE AFB       FAIR      84  39  20 S8        29.84F
DEER VALLEY    FAIR      84  36  18 SW15      29.86F
SCOTTSDALE     FAIR      84  33  16 S7        29.88F
MESA-FALCON    MOSUNNY   86  37  17 SW6       29.86F
MESA-GATEWAY   MOSUNNY   84  39  20 W15       29.88F
CHANDLER       MOSUNNY   86  39  19 SW9       29.86F
$$

AZZ027-028-012100-
SOUTHWEST MARICOPA COUNTY AND PINAL COUNTY

CITY           SKY/WX    TMP DP  RH WIND       PRES   REMARKS
CASA GRANDE    FAIR      88  36  15 W14G21    29.84F
$$

AZZ503-504-507>509-012100-
SOUTHEAST ARIZONA

CITY           SKY/WX    TMP DP  RH WIND       PRES   REMARKS
TUCSON         FAIR      87  24  10 W17G24    29.92F
DAVIS-MONTHAN  FAIR      85  36  17 SW9G21    29.90F
NOGALES        FAIR      80  37  21 SW20G28   30.00F
SIERRA VISTA   FAIR      76  33  20 W14G24    30.03F
SAFFORD        FAIR      81  36  19 SE9       29.91F
$$

AZZ020-021-025-026-031-012100-
SOUTHWEST ARIZONA

CITY           SKY/WX    TMP DP  RH WIND       PRES   REMARKS
YUMA           NOT AVBL
$$

CAZ031-033-041-043-047-048-061-012100-
SOUTHERN CALIFORNIA

CITY           SKY/WX    TMP DP  RH WIND       PRES   REMARKS
DOWNTOWN L.A.  FAIR      72  55  55 VRB6      29.98F
L.A. AIRPORT   FAIR      66  57  72 W14       30.00F
SAN DIEGO      FAIR      67  52  58 SW9       29.99F
BURBANK        FAIR      73  44  35 S9G17     29.97F
ONTARIO        FAIR      69  46  43 S7        29.98F
RIVERSIDE      FAIR      69  46  43 VRB5      29.98F
PALM SPRINGS   FAIR      88  25  10 NW9       29.87F
EL CENTRO NAS  FAIR      89  20   8 NW9       29.84F
IMPERIAL       FAIR      87  31  13 N7        29.84F
BLYTHE         FAIR      84  24  11 CALM      29.86F
$$

NVZ020-UTZ003-012100-
SOUTHERN NEVADA-UTAH

CITY           SKY/WX    TMP DP  RH WIND       PRES   REMARKS
LAS VEGAS      NOT AVBL
SALT LAKE CITY FAIR      48  20  32 NW9G18    30.10F
$$

NMZ009-TXZ055-012100-
NEW MEXICO-WEST TEXAS

CITY           SKY/WX    TMP DP  RH WIND       PRES   REMARKS
ALBUQUERQUE    PTSUNNY   72  25  17 W22G28    29.93F
EL PASO        FAIR      82  34  17 NW20G26   29.94F
$$


........................KEY........................
SKY/WX - SKY CONDITION/WEATHER
TMP    - TEMPERATURE IN FAHRENHEIT
DP     - DEW POINT IN FAHRENHEIT
RH     - RELATIVE HUMIDITY IN PERCENT
WIND   - DIRECTION AND SPEED IN MILES PER HOUR (MPH)
VRB    - VARIABLE WIND DIRECTION
PRES   - MEAN SEA LEVEL PRESSURE IN INCHES OF MERCURY
         F - FALLING PRESSURE   R - RISING PRESSURE
         S - STEADY PRESSURE
VSB    - VISIBILITY IN MILES
HX     - HEAT INDEX IN FAHRENHEIT
WCI    - WIND CHILL INDEX IN FAHRENHEIT
TC     - TEMPERATURE IN CELSIUS WHICH IS ALSO KNOWN AS
         TEMPERATURE IN CENTIGRADE
AFB    - AIR FORCE BASE
         LUKE AFB IS LUKE AIR FORCE BASE
         DAVIS-MONTHAN IS DAVIS-MONTHAN AIR FORCE BASE
NAS    - NAVAL AIR STATION
         EL CENTRO NAS IS EL CENTRO NAVAL AIR STATION
N/A    - NOT AVAILABLE



USA.gov is the U.S. government's official web portal to all federal, state and local government web resources and services.